[[{"header":{"parameterUnit":"m.s-1","parameterCategory":1,"la1":30.2991,"la2":30.254,"lo1":-89.0895,"lo2":-89.0444,"dy":0.0017,"dx":0.0017,"nx":28,"ny":28,"refTime":"2025-01-23T03:00:00:Z","depth":0,"parameterNumber":2,"parameterNumberName":"U-component_of_WINDS"},"data":[0,0,0,0,0,0,0,0,0,0,0,0,0,0,0,0,0,0,0,0,0,0,0,0,0,0,0,0,0,0,0,0,0,0,0,0,0,0,0,0,0,0,0,0,0,0,0,0,0,0,0,0,0,0,0,0,0,0,0.55,0.55,0,0.5555,0.5556,0.5557,0.5578,0.5578,0.5578,0.5578,0.5635,0.5636,0.5638,0,0,0,0,0,0,0,0,0,0,0,0,0,0.5413,0.5414,0.55,0.55,0.5501,0.5555,0.5556,0.5557,0.5578,0.5578,0.5578,0.5578,0.5634,0.5636,0.5638,0,0,0,0,0,0,0,0,0,0,0,0,0,0.5458,0.5415,0.55,0.5518,0.5521,0.5555,0.5556,0.5557,0.5578,0.5578,0.5578,0.5578,0.5633,0.5636,0.5638,0.5658,0,0,0.5646,0.5647,0,0,0,0,0,0,0,0,0.5455,0.5461,0.5515,0.5517,0.552,0.556,0.5546,0.5591,0.5578,0.5556,0.5578,0.5578,0.561,0.5614,0.5625,0.5661,0.5663,0.5646,0.5648,0.5649,0.5649,0,0,0,0,0,0,0,0.5452,0.5458,0.5522,0.5516,0.5519,0.5524,0.553,0.5555,0.5584,0.5558,0.556,0.5566,0.5611,0.5623,0.5627,0.5664,0.5646,0.5648,0.565,0.5651,0.5721,0.5721,0,0,0,0,0,0,0.5446,0.5456,0.552,0.5523,0.5486,0.5526,0.5533,0.5547,0.5584,0.5589,0.5566,0.5567,0.5619,0.5624,0.5629,0.5656,0.5649,0.5651,0.5652,0.572,0.5721,0.5721,0,0,0,0,0,0,0.5444,0.5451,0.5518,0.549,0.5499,0.5528,0.5544,0.5548,0.556,0.559,0.5595,0.5573,0.5619,0.5625,0.5651,0.5658,0.5652,0.5654,0.572,0.5721,0.5721,0.5708,0,0,0,0,0,0,0.5441,0.545,0.5458,0.549,0.55,0.5539,0.5544,0.555,0.5564,0.5566,0.5597,0.5602,0.5619,0.5647,0.5654,0.5661,0.5656,0.572,0.572,0.5721,0.5708,0.5708,0.5709,0,0,0,0,0,0.5438,0.5452,0.5458,0.5466,0.551,0.5539,0.5545,0.5564,0.5565,0.5573,0.5592,0.5601,0.5656,0.565,0.5657,0.5665,0.5719,0.572,0.5721,0.5708,0.5708,0.5709,0,0,0,0,0,0,0.5419,0.5456,0.5464,0.5488,0.5511,0.5543,0.5553,0.5563,0.5586,0.5586,0.5609,0.5616,0.564,0.5655,0.5648,0.5687,0.5688,0.5691,0.5676,0.5677,0.5677,0.5673,0.5658,0,0,0,0,0,0.5418,0.5438,0.5469,0.5488,0.5499,0.5524,0.5537,0.555,0.5574,0.5584,0.5605,0.5627,0.565,0.5664,0.5686,0.5711,0.5719,0.572,0.572,0.572,0.5722,0.5737,0.5738,0.5724,0.5724,0.5724,0,0,0.5416,0.5438,0.545,0.5485,0.5504,0.5524,0.5532,0.5553,0.5569,0.5587,0.5613,0.5629,0.5656,0.5682,0.5694,0.5695,0.5728,0.5721,0.5721,0.5723,0.5738,0.5739,0.5741,0.5725,0.5724,0.5724,0,0,0.5422,0.5441,0.5459,0.5478,0.5506,0.5523,0.5528,0.5559,0.557,0.5597,0.5611,0.563,0.5668,0.5687,0.5702,0.5717,0.5726,0.5723,0.5724,0.5738,0.5739,0.574,0.5746,0.5748,0.5725,0.5725,0.5725,0,0.5415,0.5447,0.5467,0.5488,0.5504,0.5521,0.554,0.5558,0.5592,0.5602,0.5603,0.5652,0.5671,0.5702,0.5706,0.5717,0.5723,0.572,0.5737,0.5739,0.574,0.5746,0.5748,0.5724,0.5725,0.5725,0.5725,0,0.5438,0.5459,0.5471,0.5504,0.5521,0.554,0.5564,0.5579,0.5591,0.5608,0.5635,0.5659,0.5687,0.5695,0.5707,0.5728,0.5728,0.5733,0.5734,0.5741,0.5747,0.5749,0.5724,0.5724,0.5724,0.5724,0,0,0.5433,0.5478,0.5482,0.5497,0.553,0.5548,0.5569,0.5597,0.5609,0.5632,0.5651,0.5683,0.5688,0.5705,0.5719,0.5732,0.5743,0.5735,0.5736,0.5736,0.5769,0.5765,0.5767,0.575,0.575,0.575,0.5767,0,0.5444,0.5482,0.5502,0.5532,0.5553,0.557,0.5589,0.5611,0.5628,0.5649,0.5667,0.569,0.5695,0.5705,0.5719,0.5739,0.575,0.5738,0.5767,0.5768,0.576,0.577,0.5766,0.578,0.5769,0.5769,0.577,0,0.5461,0.5485,0.5517,0.5549,0.5559,0.5575,0.5602,0.5621,0.5648,0.5659,0.5678,0.5692,0.5716,0.5716,0.5749,0.574,0.5754,0.5765,0.5767,0.577,0.5769,0.5774,0.5785,0.5787,0.5773,0.5773,0.5773,0,0.5455,0.5495,0.552,0.5533,0.557,0.5581,0.5598,0.5624,0.564,0.5664,0.5674,0.5701,0.5715,0.5736,0.5757,0.5755,0.5788,0.5789,0.5798,0.5798,0.5804,0.5804,0.5817,0.5813,0.5813,0.5813,0.5813,0,0.5466,0.5485,0.5518,0.5533,0.5555,0.5578,0.5599,0.5617,0.5641,0.566,0.5677,0.5695,0.5721,0.5742,0.5759,0.5784,0.5791,0.5801,0.5805,0.5799,0.5798,0.5808,0.5808,0.5813,0.5813,0.5813,0.5813,0,0.5462,0.5485,0.5513,0.5547,0.5556,0.5571,0.56,0.5616,0.5634,0.5658,0.5665,0.5694,0.572,0.5743,0.5777,0.5788,0.5814,0.5819,0.5805,0.5808,0.5815,0.5815,0.5837,0.5841,0.5833,0.5833,0.5833,0,0.5467,0.5482,0.5518,0.5532,0.5548,0.5571,0.5587,0.5611,0.5627,0.5659,0.5671,0.5699,0.5722,0.5763,0.5787,0.5813,0.5819,0.5825,0.5823,0.5818,0.582,0.5819,0.5821,0.5825,0.5825,0.5825,0.5825,0,0.5474,0.5485,0.5508,0.5535,0.5554,0.5577,0.56,0.5611,0.5639,0.5656,0.5683,0.5701,0.5737,0.5764,0.5794,0.5811,0.5823,0.5826,0.5829,0.5823,0.5815,0.582,0.5805,0.5825,0.5825,0.5825,0.5825,0.5825,0.5475,0.549,0.5518,0.5543,0.5563,0.5584,0.5601,0.5622,0.5645,0.5676,0.5688,0.5716,0.5743,0.5784,0.5802,0.5824,0.5826,0.5831,0.5832,0.5833,0.5833,0.5811,0.5829,0.5829,0.5829,0.5829,0.5829,0,0.5483,0.5502,0.5525,0.5557,0.5577,0.5587,0.5614,0.563,0.5654,0.5679,0.5702,0.5733,0.576,0.5786,0.5815,0.5828,0.5834,0.5834,0.5834,0.5838,0.5829,0.5823,0.5829,0.5829,0.5829,0.5829,0.5829,0.5829,0.5489,0.5515,0.553,0.5566,0.5585,0.5612,0.5627,0.5647,0.5667,0.5701,0.5724,0.5741,0.5767,0.5797,0.5823,0.583,0.5839,0.5839,0.5847,0.5838,0.5838,0.5838,0.5833,0.584,0.584,0.5854,0.5854,0.5854]},{"header":{"parameterUnit":"m.s-1","parameterCategory":1,"la1":30.2991,"la2":30.254,"lo1":-89.0895,"lo2":-89.0444,"dy":0.0017,"dx":0.0017,"nx":28,"ny":28,"refTime":"2025-01-23T03:00:00:Z","depth":0,"parameterNumber":3,"parameterNumberName":"V-component_of_WINDS"},"data":[0,0,0,0,0,0,0,0,0,0,0,0,0,0,0,0,0,0,0,0,0,0,0,0,0,0,0,0,0,0,0,0,0,0,0,0,0,0,0,0,0,0,0,0,0,0,0,0,0,0,0,0,0,0,0,0,0,0,-3.4073,-3.4073,0,-3.4098,-3.4098,-3.4098,-3.4081,-3.408,-3.4079,-3.4079,-3.4102,-3.4104,-3.4105,0,0,0,0,0,0,0,0,0,0,0,0,0,-3.4011,-3.4012,-3.4073,-3.4073,-3.4074,-3.4097,-3.4098,-3.4098,-3.4081,-3.408,-3.4079,-3.4078,-3.4102,-3.4103,-3.4105,0,0,0,0,0,0,0,0,0,0,0,0,0,-3.4037,-3.4012,-3.4073,-3.4068,-3.4068,-3.4097,-3.4098,-3.4098,-3.4081,-3.408,-3.4079,-3.4078,-3.4101,-3.4103,-3.4105,-3.4141,0,0,-3.4111,-3.4112,0,0,0,0,0,0,0,0,-3.4035,-3.4039,-3.4068,-3.4068,-3.4068,-3.4085,-3.4084,-3.4112,-3.4082,-3.4076,-3.4079,-3.4077,-3.4097,-3.41,-3.4107,-3.4142,-3.4143,-3.4112,-3.4113,-3.4114,-3.4114,0,0,0,0,0,0,0,-3.4033,-3.4038,-3.4083,-3.4069,-3.4069,-3.4064,-3.4067,-3.409,-3.4093,-3.4076,-3.4075,-3.4078,-3.4097,-3.4105,-3.4107,-3.4143,-3.4112,-3.4113,-3.4115,-3.4115,-3.421,-3.4211,0,0,0,0,0,0,-3.4032,-3.4036,-3.4082,-3.4083,-3.4049,-3.4066,-3.4069,-3.4081,-3.4092,-3.4093,-3.4079,-3.4078,-3.4102,-3.4105,-3.4108,-3.4151,-3.4114,-3.4116,-3.4117,-3.4209,-3.421,-3.4212,0,0,0,0,0,0,-3.4031,-3.4036,-3.4081,-3.406,-3.4065,-3.4069,-3.4082,-3.4082,-3.409,-3.4095,-3.4095,-3.4087,-3.4101,-3.4105,-3.4133,-3.4152,-3.4116,-3.4118,-3.4207,-3.4209,-3.4211,-3.4238,0,0,0,0,0,0,-3.4029,-3.4036,-3.405,-3.406,-3.4066,-3.4106,-3.4083,-3.4083,-3.4093,-3.4091,-3.4102,-3.4102,-3.4101,-3.413,-3.4135,-3.4154,-3.412,-3.4206,-3.4208,-3.421,-3.4235,-3.4241,-3.4245,0,0,0,0,0,-3.4027,-3.4055,-3.405,-3.4056,-3.4083,-3.4107,-3.411,-3.4108,-3.4095,-3.4109,-3.4112,-3.4102,-3.4149,-3.4133,-3.4139,-3.4158,-3.4204,-3.4207,-3.421,-3.4233,-3.424,-3.4245,0,0,0,0,0,0,-3.4046,-3.4057,-3.4051,-3.4084,-3.4095,-3.4104,-3.4121,-3.4115,-3.4129,-3.4126,-3.4122,-3.4125,-3.4155,-3.4159,-3.4141,-3.4194,-3.4175,-3.4179,-3.419,-3.4196,-3.4201,-3.42,-3.4122,0,0,0,0,0,-3.4054,-3.4073,-3.4081,-3.4109,-3.4115,-3.4117,-3.4127,-3.4125,-3.4136,-3.414,-3.4146,-3.4156,-3.4174,-3.4185,-3.4201,-3.4236,-3.4239,-3.4252,-3.4257,-3.4261,-3.4265,-3.4285,-3.4292,-3.4222,-3.4221,-3.4221,0,0,-3.4071,-3.4079,-3.4091,-3.4113,-3.4121,-3.4141,-3.4121,-3.4142,-3.4157,-3.4143,-3.4171,-3.4175,-3.4187,-3.4219,-3.4233,-3.4224,-3.4285,-3.4265,-3.4268,-3.427,-3.4289,-3.4295,-3.4301,-3.4224,-3.4223,-3.4223,0,0,-3.4112,-3.4119,-3.4144,-3.4153,-3.4167,-3.4168,-3.4174,-3.4185,-3.4188,-3.4215,-3.4206,-3.4223,-3.4252,-3.4262,-3.427,-3.4316,-3.4308,-3.4321,-3.4347,-3.4367,-3.4372,-3.4377,-3.4395,-3.4401,-3.4325,-3.4325,-3.4325,0,-3.4131,-3.416,-3.4158,-3.4181,-3.4191,-3.418,-3.4206,-3.4215,-3.4232,-3.424,-3.4229,-3.4267,-3.4273,-3.4308,-3.432,-3.4327,-3.4334,-3.432,-3.4372,-3.4376,-3.4381,-3.4398,-3.4404,-3.4327,-3.4327,-3.4326,-3.4326,0,-3.4184,-3.4205,-3.4223,-3.4242,-3.4254,-3.4278,-3.4279,-3.4292,-3.4289,-3.4292,-3.432,-3.4329,-3.4347,-3.4355,-3.4351,-3.439,-3.4383,-3.4372,-3.4352,-3.4389,-3.4405,-3.4411,-3.4329,-3.4329,-3.4328,-3.4328,0,0,-3.4237,-3.4255,-3.4262,-3.4271,-3.4285,-3.4301,-3.4325,-3.4343,-3.4355,-3.4368,-3.4388,-3.4414,-3.4404,-3.4414,-3.4411,-3.4428,-3.4466,-3.4415,-3.4415,-3.4425,-3.451,-3.452,-3.4527,-3.446,-3.4462,-3.4463,-3.451,0,-3.4279,-3.4322,-3.4321,-3.436,-3.438,-3.4371,-3.4392,-3.4403,-3.4406,-3.4423,-3.4427,-3.4446,-3.4431,-3.4437,-3.4454,-3.4458,-3.4483,-3.4454,-3.448,-3.4481,-3.4478,-3.4535,-3.4545,-3.4589,-3.4516,-3.4517,-3.4518,0,-3.4334,-3.435,-3.4392,-3.4405,-3.4413,-3.4432,-3.445,-3.4467,-3.4479,-3.4481,-3.4493,-3.4488,-3.4512,-3.4492,-3.4526,-3.4506,-3.4516,-3.452,-3.4522,-3.4525,-3.4502,-3.4541,-3.4603,-3.461,-3.4527,-3.4526,-3.4526,0,-3.4371,-3.4402,-3.4432,-3.4439,-3.4455,-3.4469,-3.4476,-3.4487,-3.4499,-3.4515,-3.4523,-3.454,-3.455,-3.4564,-3.4564,-3.4549,-3.4599,-3.4578,-3.4602,-3.4602,-3.4613,-3.4612,-3.4679,-3.4618,-3.4618,-3.4618,-3.4618,0,-3.4419,-3.4445,-3.4449,-3.4467,-3.4496,-3.4495,-3.4524,-3.4529,-3.454,-3.456,-3.4552,-3.457,-3.4569,-3.4587,-3.4587,-3.4616,-3.462,-3.4623,-3.4622,-3.4624,-3.4624,-3.4631,-3.4628,-3.462,-3.4619,-3.4619,-3.4619,0,-3.4464,-3.4467,-3.4499,-3.4512,-3.4516,-3.4537,-3.4548,-3.4565,-3.4569,-3.4593,-3.4599,-3.4604,-3.4625,-3.4627,-3.4651,-3.4651,-3.4687,-3.4683,-3.4683,-3.4683,-3.4706,-3.4705,-3.4781,-3.4791,-3.4722,-3.4723,-3.4724,0,-3.4495,-3.4515,-3.4531,-3.4544,-3.4552,-3.4572,-3.4585,-3.4585,-3.4598,-3.4615,-3.4631,-3.4652,-3.4669,-3.4703,-3.4709,-3.4728,-3.4725,-3.475,-3.4728,-3.4729,-3.4727,-3.4726,-3.4729,-3.4755,-3.4756,-3.4756,-3.4757,0,-3.455,-3.4551,-3.457,-3.459,-3.4605,-3.4621,-3.4635,-3.4646,-3.4648,-3.4663,-3.4686,-3.4699,-3.4725,-3.4746,-3.4765,-3.4772,-3.4765,-3.4764,-3.4771,-3.4773,-3.4773,-3.4774,-3.4696,-3.4762,-3.4762,-3.4761,-3.4761,-3.4761,-3.459,-3.4608,-3.4622,-3.4644,-3.4655,-3.4669,-3.4687,-3.4693,-3.4712,-3.4734,-3.4732,-3.4758,-3.4771,-3.4796,-3.4804,-3.4824,-3.4815,-3.4825,-3.4827,-3.483,-3.4833,-3.4769,-3.4827,-3.4827,-3.4827,-3.4827,-3.4827,0,-3.4645,-3.4655,-3.4675,-3.4696,-3.4713,-3.4706,-3.4722,-3.4737,-3.4759,-3.4773,-3.479,-3.4817,-3.4838,-3.4846,-3.4866,-3.488,-3.4878,-3.4886,-3.4885,-3.4887,-3.4839,-3.4832,-3.4888,-3.4888,-3.4888,-3.4888,-3.4888,-3.4888,-3.4676,-3.4708,-3.4711,-3.4748,-3.4756,-3.4782,-3.4792,-3.4805,-3.4816,-3.4846,-3.4864,-3.4869,-3.4881,-3.4902,-3.4922,-3.4923,-3.4932,-3.4941,-3.4942,-3.4897,-3.489,-3.4885,-3.4878,-3.4943,-3.4943,-3.4989,-3.4989,-3.499]}]]